Regional Weather Roundup
Issued by NWS

Home | Current Version | Previous Version | Text Only | Print | Product List | Glossary On
Versions: 1 2 3 4 5 6 7 8 9 10 11 12 13 14 15 16 17 18 19 20 21 22 23 24 25 26 27 28 29 30 31 32 33 34 35 36 37 38 39 40 41 42 43 44 45 46 47 48 49 50
000
ASUS43 KTOP 202308
RWRKS

WEATHER ROUNDUP FOR KANSAS
NATIONAL WEATHER SERVICE GOODLAND KS
500 PM CST MON FEB 20 2017

NOTE:  "FAIR" INDICATES FEW OR NO CLOUDS BELOW 12,000 FEET WITH NO
SIGNIFICANT WEATHER AND/OR OBSTRUCTIONS TO VISIBILITY.

KSZ001>006-013>018-027>032-041>047-210000-
NORTHWEST KANSAS

CITY           SKY/WX    TMP DP  RH WIND       PRES   REMARKS
GOODLAND       SUNNY     63  12  13 NW22      29.98R
HAYS           SUNNY     64  36  35 N22       29.89R
HILL CITY      SUNNY     65  34  31 N16G26    29.92R
RUSSELL        MOSUNNY   66  38  35 N22       29.86R
$$

KSZ061>065-074>080-084>089-210000-
SOUTHWEST KANSAS

CITY           SKY/WX    TMP DP  RH WIND       PRES   REMARKS
DODGE CITY     SUNNY     65  28  24 N20G31    29.92R
ELKHART          N/A     65  14  14 NW16        N/A
GARDEN CITY    SUNNY     65  19  17 N23G30    29.96R
GREAT BEND     MOSUNNY   66  38  35 NW18      29.87R
LIBERAL        SUNNY     66  14  13 N18G29    29.98R
PRATT          MOSUNNY   62  32  33 NW16      29.88R
$$

KSZ066>073-081>083-090>101-210000-
SOUTHEAST KANSAS

CITY           SKY/WX    TMP DP  RH WIND       PRES   REMARKS
CHANUTE        CLOUDY    63  52  67 S12       29.87F
COFFEYVILLE    CLOUDY    63  54  72 S13       29.89R
HUTCHINSON     SUNNY     69  34  27 NW13      29.83R
MEDICINE LODGE   N/A     69  27  20 NW16      29.85R
NEWTON         MOSUNNY   61  52  72 S12       29.85S
PARSONS        CLOUDY    63  53  70 S10       29.89S
WICHITA INTL   MOSUNNY   62  53  72 S12       29.85S
WICHITA JABRA  MOSUNNY   61  52  72 S12       29.86R
WICHITA MCCONL SUNNY     62  52  69 SW10      29.86R
WINFIELD       MOSUNNY   62  54  74 S10       29.88R
$$

KSZ007>012-019>026-033>040-048>060-102>105-210000-
NORTHEAST KANSAS

CITY           SKY/WX    TMP DP  RH WIND       PRES   REMARKS
CONCORDIA      SUNNY     67  42  40 NW17      29.83R
EMPORIA        CLOUDY    60  53  77 SW9       29.85S
LAWRENCE       CLOUDY    64  53  67 S13       29.85R
MANHATTAN      CLOUDY    63  53  70 SW9       29.82R
MARYSVILLE     MOSUNNY   63  54  72 S9        29.83R
OLATHE IND     PTSUNNY   64  51  62 S17       29.87R
OLATHE EXE     CLOUDY    64  52  64 SW15G23   29.86R
SALINA         SUNNY     71  37  28 NW12      29.83R
TOPEKA BILLARD CLOUDY    63  52  67 S9        29.84R
TOPEKA FORBES  CLOUDY    63  52  67 S13       29.84R
$$




USA.gov is the U.S. government's official web portal to all federal, state and local government web resources and services.